Regional Weather Roundup
Issued by NWS

Home | Current Version | Previous Version | Text Only | Print | Product List | Glossary Off
Versions: 1 2 3 4 5 6 7 8 9 10 11 12 13 14 15 16 17 18 19 20 21 22 23 24 25 26 27 28 29 30 31 32 33 34 35 36 37 38 39 40 41 42 43 44 45 46 47 48 49 50

000
ASUS45 KABQ 020001
RWRNM
NEW MEXICO REGIONAL WEATHER ROUNDUP
NATIONAL WEATHER SERVICE ALBUQUERQUE NM
600 PM MDT SAT AUG 01 2015

NOTE: "FAIR" MEANS FEW OR NO CLOUDS BELOW 12,000 FEET AGL WITH NO
       SIGNIFICANT WEATHER OR OBSTRUCTIONS TO VISION.

      THIS PRODUCT IS RELEASED AS TWO VERSIONS.  ONE VERSION NEAR
      THE TOP OF THE HOUR CONTAINING PRELIMINARY DATA FROM ALBUQUERQUE
      AND OTHER STATIONS.  A FINAL VERSION WITH ADDITIONAL DATA IS
      ISSUED ABOUT 10 MINUTES AFTER THE HOUR.

NMZ501-503-504-510>518-020100-
NORTHWEST PLATEAU/NORTHCENTRAL MOUNTAINS

CITY           SKY/WX    TMP DP  RH WIND       PRES   REMARKS
FARMINGTON     MOSUNNY   79  54  41 W5        30.14F
6HR MIN TEMP:  75; 6HR MAX TEMP:  81; 6HR PCP: TRACE;

SANTA FE       CLOUDY    76  53  44 N10       30.22F
6HR MIN TEMP:  74; 6HR MAX TEMP:  83; 6HR PCP: TRACE;

TAOS           CLOUDY    61  48  63 SE13      30.31F
ANGEL FIRE     RAIN      57  53  84 S3        30.42F

$$
NMZ402-403-502-505>509-020100-
WESTCENTRAL MOUNTAINS/SOUTHWEST MOUNTAINS

CITY           SKY/WX    TMP DP  RH WIND       PRES   REMARKS
GALLUP         PTSUNNY   72  59  63 N5        30.24S
6HR MIN TEMP:  64; 6HR MAX TEMP:  83; 6HR PCP:  0.27;

SILVER CITY      N/A     82  50  32 SW13      30.15R

$$
NMZ407-409-411-412-020100-
SOUTHERN DESERTS

CITY           SKY/WX    TMP DP  RH WIND       PRES   REMARKS
DEMING         MOSUNNY   93  50  23 VRB5      30.02F
6HR MIN TEMP:  84; 6HR MAX TEMP:  93;

HOLLOMAN AFB   SUNNY     93  48  21 W9        30.00F
ALAMOGORDO     MOSUNNY   91  50  24 CALM      30.03F
T OR C         PTSUNNY   89  50  26 W16       30.08F
6HR MIN TEMP:  81; 6HR MAX TEMP:  91;


$$
NMZ519>523-020100-
CENTRAL VALLEYS/CENTRAL HIGHLANDS

CITY           SKY/WX    TMP DP  RH WIND       PRES   REMARKS
ALBUQUERQUE    PTSUNNY   87  47  24 W6        30.11F
6HR MIN TEMP:  79; 6HR MAX TEMP:  88;

DOUBLE EAGLE   PTSUNNY   79  59  50 NW20      30.18S SQUALL
MORIARTY ARPT    N/A     78  55  46 N17       30.21F
6HR MIN TEMP:  73; 6HR MAX TEMP:  83;

CLINES CORNERS PTSUNNY   77  54  44 CALM      30.25F
6HR MIN TEMP:  73; 6HR MAX TEMP:  80;

BELEN          FAIR      87  46  23 SE9       30.09F
6HR MIN TEMP:  81; 6HR MAX TEMP:  91;

SOCORRO        NOT AVBL

$$
NMZ524>526-539-540-020100-
SOUTHCENTRAL MOUNTAINS

CITY           SKY/WX    TMP DP  RH WIND       PRES   REMARKS
RUIDOSO          N/A    N/A N/A N/A MISG        N/A

$$
NMZ527>531-020100-
NORTHEAST HIGHLANDS/NORTHEAST PLAINS

CITY           SKY/WX    TMP DP  RH WIND       PRES   REMARKS
LAS VEGAS      CLOUDY    66  57  72 N15       30.28F
6HR MIN TEMP:  64; 6HR MAX TEMP:  80; 6HR PCP:  0.10;

RATON          TSTM      63  58  83 N9        30.25R
6HR MIN TEMP:  63; 6HR MAX TEMP:  86; 6HR PCP:  0.07;

CLAYTON        CLOUDY    84  63  49 S14       30.09F
6HR MIN TEMP:  81; 6HR MAX TEMP:  87;


$$
NMZ532>537-020100-
EASTCENTRAL PLAINS

CITY           SKY/WX    TMP DP  RH WIND       PRES   REMARKS
TUCUMCARI      PTSUNNY   83  66  56 SW5       30.03S
6HR MIN TEMP:  83; 6HR MAX TEMP:  90;

CANNON AFB     SUNNY     87  61  41 SW8       30.06F
6HR MIN TEMP:  79; 6HR MAX TEMP:  91;

CLOVIS AIRPORT SUNNY     88  61  40 S16       30.07F

$$
NMZ028-029-538-020100-
SOUTHEAST PLAINS

CITY           SKY/WX    TMP DP  RH WIND       PRES   REMARKS
ROSWELL        PTSUNNY   89  54  30 W12       30.00F
6HR MIN TEMP:  88; 6HR MAX TEMP:  99;

ARTESIA        PTSUNNY   93  55  27 SW7       30.00F
CARLSBAD       MOSUNNY   98  54  22 SE5       29.95F HX  96
6HR MIN TEMP:  91; 6HR MAX TEMP: 100;

HOBBS          PTSUNNY   90  59  35 NW16G24   30.04R THUNDER


$$



USA.gov is the U.S. government's official web portal to all federal, state and local government web resources and services.